{"data":{"norad_id":62489,"intl_designator":"2025-003C","name":"STARLINK-32328","alt_names":[],"object_type":"PAYLOAD","status":"ACTIVE","operator":null,"country":"US","launch_date":"2025-01-06","launch_site_code":"AFETR","launch_vehicle":null,"mission":null,"orbit_class":"UNKNOWN","rcs_meters":null,"size_class":null,"mass_kg":null,"dimensions":null,"purposes":["comms"],"wikipedia_slug":null,"has_3d_model":false,"image_url":null,"decayed_at":null,"tle_current":{"epoch":"2026-09-21T08:38:13.130016Z","epoch_age_seconds":100212,"freshness":"FRESH","line1":"1 62489U 25003C   26264.35987419  .00006851  00000+0  25820-3 0  9994","line2":"2 62489  43.0010 264.2000 0001216 267.0946  92.9766 15.27587621 96599","mean_motion":15.27587621,"eccentricity":0.0001216,"inclination_deg":43.001,"raan_deg":264.2,"arg_perigee_deg":267.0946,"mean_anomaly_deg":92.9766,"bstar":0.0002582,"rev_number":9659,"period_min":94.266278425151,"perigee_km":482.19195866451,"apogee_km":483.86059357326,"semimajor_km":6861.1632761189,"source":"CELESTRAK","updated_at":"2026-09-22T09:00:49.616417Z"}}}